Regional Weather Roundup
Issued by NWS

Home | Current Version | Previous Version | Text Only | Print | Product List | Glossary On
Versions: 1 2 3 4 5 6 7 8 9 10 11 12 13 14 15 16 17 18 19 20 21 22 23 24 25 26 27 28 29 30 31 32 33 34 35 36 37 38 39 40 41 42 43 44 45
000
ASUS42 KKEY 272310
RWRKEY

FLORIDA REGIONAL WEATHER ROUNDUP FOR THE FLORIDA KEYS
NATIONAL WEATHER SERVICE KEY WEST FLORIDA
600 PM EST FRI FEB 27 2015

...SOUTH FLORIDA AND THE KEYS...

CITY           SKY/WX    TMP DP  RH WIND       PRES   REMARKS
FORT MYERS     CLOUDY    60  55  83 NE14      30.14S
SW REGIONAL AP CLOUDY    60  54  80 NE15      30.15S
NAPLES         CLOUDY    62  57  83 NE16      30.13R
MIAMI          MOCLDY    71  64  78 N9        30.11R
WEST KENDALL   CLEAR     69  63  81 N13       30.11R
HOMESTEAD      CLOUDY    73  64  73 N12       30.09R
MARATHON       PTCLDY    76  73  91 E6        30.06S
BOCA CHICA NAS MOCLDY    69  65  86 N17       30.08R
KEY WEST INTL  PTCLDY    69  66  90 N13G20    30.08R

...INTERNATIONAL WEATHER...

CITY           SKY/WX    TMP DP  RH WIND       PRES   REMARKS
NASSAU BAHAMAS MOCLDY    77  70  78 NW7       30.09S
CANCUN MEXICO  PTSUNNY   81  73  78 SE8       29.98R
COZUMEL MEXICO MOSUNNY   79  72  78 SE9       29.97R

ADJACENT COASTAL WATERS...

STATION/POSITION TIME  SKY/WX   TEMP    WIND        PRES    WAVE
                                AIR SEA DIR/SP/G            HT/PER
                 (UTC)          (F)     (DEG/KT/KT) (MB)    (FT/S)
PULASKI SHOAL LI 2200            66      40/ 20/ 23 1018.2F
SAND KEY         2250            68      20/ 19/ 21 1018.3R
SOMBRERO KEY     2300            75      90/  9/  9 1018.8R
LONG KEY         2200            76 78   90/  9/ 10 1018.7R
MOLASSES REEF    2300            74 75   30/ 12/ 14 1018.3R
FOWEY ROCKS      NOT AVBL
Buoy 42080       NOT AVBL

$$



USA.gov is the U.S. government's official web portal to all federal, state and local government web resources and services.